TimeEDT,TemperatureF,Dew PointF,Humidity,Sea Level PressureIn,VisibilityMPH,Wind Direction,Wind SpeedMPH,Gust SpeedMPH,PrecipitationIn,Events,Conditions,WindDirDegrees,DateUTC
12:15 AM,39.2,28.4,65,30.46,10.0,North,8.1,-,N/A,,Clear,10,2012-10-13 04:15:00
12:35 AM,39.2,28.4,65,30.46,10.0,North,5.8,-,N/A,,Clear,10,2012-10-13 04:35:00
1:15 AM,39.2,28.4,65,30.46,10.0,NE,3.5,-,N/A,,Clear,40,2012-10-13 05:15:00
1:35 AM,39.2,28.4,65,30.47,10.0,Calm,Calm,-,N/A,,Clear,0,2012-10-13 05:35:00
2:15 AM,37.4,28.4,70,30.46,10.0,NNE,5.8,-,N/A,,Clear,20,2012-10-13 06:15:00
3:15 AM,37.4,28.4,70,30.45,10.0,Calm,Calm,-,N/A,,Clear,0,2012-10-13 07:15:00
3:35 AM,35.6,28.4,75,30.46,10.0,North,3.5,-,N/A,,Clear,360,2012-10-13 07:35:00
4:35 AM,35.6,28.4,75,30.47,10.0,North,3.5,-,N/A,,Clear,10,2012-10-13 08:35:00
4:55 AM,35.6,28.4,75,30.48,10.0,Calm,Calm,-,N/A,,Clear,0,2012-10-13 08:55:00
5:15 AM,35.6,26.6,70,30.49,10.0,Calm,Calm,-,N/A,,Clear,0,2012-10-13 09:15:00
5:35 AM,35.6,28.4,75,30.49,10.0,NNE,5.8,-,N/A,,Clear,20,2012-10-13 09:35:00
6:35 AM,35.6,26.6,70,30.51,10.0,Calm,Calm,-,N/A,,Clear,0,2012-10-13 10:35:00
6:55 AM,33.8,28.4,81,30.51,10.0,Calm,Calm,-,N/A,,Clear,0,2012-10-13 10:55:00
7:15 AM,33.8,28.4,81,30.51,10.0,Calm,Calm,-,N/A,,Clear,0,2012-10-13 11:15:00
7:35 AM,33.8,28.4,81,30.51,10.0,Calm,Calm,-,N/A,,Clear,0,2012-10-13 11:35:00
7:55 AM,33.8,28.4,81,30.50,10.0,Calm,Calm,-,N/A,,Clear,0,2012-10-13 11:55:00
8:15 AM,35.6,28.4,75,30.51,10.0,Calm,Calm,-,N/A,,Clear,0,2012-10-13 12:15:00
8:55 AM,39.2,28.4,65,30.51,10.0,Calm,Calm,-,N/A,,Clear,0,2012-10-13 12:55:00
9:15 AM,41.0,28.4,61,30.52,10.0,Calm,Calm,-,N/A,,Clear,0,2012-10-13 13:15:00
10:15 AM,44.6,26.6,49,30.53,10.0,Calm,Calm,-,N/A,,Clear,0,2012-10-13 14:15:00
10:35 AM,46.4,26.6,46,30.53,10.0,SE,5.8,-,N/A,,Clear,130,2012-10-13 14:35:00
10:55 AM,46.4,28.4,50,30.53,10.0,SSE,4.6,-,N/A,,Clear,160,2012-10-13 14:55:00
11:15 AM,48.2,30.2,50,30.52,10.0,ESE,6.9,-,N/A,,Clear,120,2012-10-13 15:15:00
11:55 AM,48.2,30.2,50,30.51,10.0,SSE,3.5,-,N/A,,Clear,160,2012-10-13 15:55:00
12:35 PM,51.8,28.4,41,30.49,10.0,SE,5.8,-,N/A,,Clear,130,2012-10-13 16:35:00
12:55 PM,51.8,26.6,38,30.48,10.0,South,3.5,-,N/A,,Clear,190,2012-10-13 16:55:00
1:15 PM,51.8,28.4,41,30.46,10.0,SE,4.6,-,N/A,,Clear,140,2012-10-13 17:15:00
1:35 PM,53.6,28.4,38,30.45,10.0,West,6.9,-,N/A,,Clear,260,2012-10-13 17:35:00
1:55 PM,53.6,28.4,38,30.43,10.0,WSW,4.6,-,N/A,,Clear,250,2012-10-13 17:55:00
2:15 PM,53.6,28.4,38,30.41,10.0,SW,6.9,-,N/A,,Clear,220,2012-10-13 18:15:00
2:55 PM,55.4,30.2,38,30.40,10.0,South,4.6,-,N/A,,Clear,180,2012-10-13 18:55:00
3:15 PM,53.6,30.2,41,30.40,10.0,SSW,3.5,-,N/A,,Clear,210,2012-10-13 19:15:00
3:35 PM,55.4,30.2,38,30.41,10.0,South,4.6,-,N/A,,Clear,170,2012-10-13 19:35:00
3:55 PM,55.4,30.2,38,30.39,10.0,SSW,5.8,-,N/A,,Clear,200,2012-10-13 19:55:00
4:15 PM,53.6,30.2,41,30.40,10.0,South,5.8,-,N/A,,Clear,170,2012-10-13 20:15:00
4:35 PM,53.6,32.0,44,30.39,10.0,SSE,5.8,-,N/A,,Clear,160,2012-10-13 20:35:00
4:55 PM,53.6,30.2,41,30.40,10.0,WSW,4.6,-,N/A,,Clear,240,2012-10-13 20:55:00
5:15 PM,53.6,30.2,41,30.39,10.0,SW,4.6,-,N/A,,Clear,230,2012-10-13 21:15:00
5:55 PM,51.8,32.0,47,30.38,10.0,South,3.5,-,N/A,,Clear,190,2012-10-13 21:55:00
6:15 PM,50.0,32.0,50,30.38,10.0,Calm,Calm,-,N/A,,Clear,0,2012-10-13 22:15:00
6:35 PM,48.2,32.0,54,30.38,10.0,Calm,Calm,-,N/A,,Clear,0,2012-10-13 22:35:00
6:55 PM,48.2,32.0,54,30.37,10.0,Calm,Calm,-,N/A,,Clear,0,2012-10-13 22:55:00
7:15 PM,46.4,33.8,62,30.36,10.0,Calm,Calm,-,N/A,,Clear,0,2012-10-13 23:15:00
7:35 PM,46.4,33.8,62,30.36,10.0,South,3.5,-,N/A,,Clear,180,2012-10-13 23:35:00
8:55 PM,44.6,33.8,66,30.36,10.0,Calm,Calm,-,N/A,,Clear,0,2012-10-14 00:55:00
9:15 PM,44.6,33.8,66,30.35,10.0,Calm,Calm,-,N/A,,Clear,0,2012-10-14 01:15:00
9:35 PM,44.6,33.8,66,30.36,10.0,Calm,Calm,-,N/A,,Clear,0,2012-10-14 01:35:00
10:15 PM,44.6,35.6,71,30.35,10.0,SSE,3.5,-,N/A,,Clear,160,2012-10-14 02:15:00
10:35 PM,44.6,35.6,71,30.34,10.0,Calm,Calm,-,N/A,,Clear,0,2012-10-14 02:35:00
10:55 PM,44.6,35.6,71,30.33,10.0,Calm,Calm,-,N/A,,Clear,0,2012-10-14 02:55:00
11:15 PM,44.6,33.8,66,30.32,10.0,Calm,Calm,-,N/A,,Clear,0,2012-10-14 03:15:00
11:55 PM,44.6,35.6,71,30.32,10.0,SSE,3.5,-,N/A,,Clear,160,2012-10-14 03:55:00